Location: Firnhaberau
(48.4049°N, 10.8963°E)
Time: 16:42:09
(UTC+00:00)

STARLINK-60 - Pass Details

Date: 07 June 2020
Orbit: 382 x 390 km, 53.0° (Epoch: 09 July)

Event Time Altitude Azimuth Distance (km) Brightness Sun altitude
Rises 00:35:20 0° 295° (WNW) 2,275 6.9 -16.6°
Reaches altitude 10° 00:37:23 10° 295° (WNW) 1,420 5.8 -16.5°
Maximum altitude 00:40:34 83° 210° (SSW) 398 2.7 -16.3°
Drops below altitude 10° 00:43:45 10° 120° (ESE) 1,423 5.6 -16.1°
Sets 00:45:49 0° 120° (ESE) 2,280 6.7 -16.0°
